Regional Weather Roundup
Issued by NWS

Home | Current Version | Previous Version | Graphics & Text | Print | Product List | Glossary On
Versions: 1 2 3 4 5 6 7 8 9 10 11 12 13 14 15 16 17 18 19 20 21 22 23 24 25 26 27 28 29 30 31 32 33 34 35 36 37 38 39 40 41 42 43 44 45 46 47 48 49 50
000
ASUS45 KPSR 220300
RWRAZ

PRELIMINARY ARIZONA REGIONAL HOURLY WEATHER ROUNDUP
NATIONAL WEATHER SERVICE PHOENIX AZ
800 PM MST THU AUG 21 2014

NOTE: FAIR INDICATES FEW OR NO CLOUDS BELOW 12,000 FEET WITH NO
SIGNIFICANT WEATHER AND/OR OBSTRUCTIONS TO VISIBILITY.

AZZ001>003-036-220400-
NORTHWEST ARIZONA

CITY           SKY/WX    TMP DP  RH WIND       PRES   REMARKS
KINGMAN        MOCLDY    69  60  73 N7        30.06S
$$

AZZ004>008-015-016-018-220400-
NORTH CENTRAL ARIZONA

CITY           SKY/WX    TMP DP  RH WIND       PRES   REMARKS
GRAND CANYON   LGT RAIN N/A N/A N/A MISG        N/A
WILLIAMS       CLOUDY    55  52  88 CALM      30.32R
PRESCOTT       PTCLDY    63  53  70 W6        30.17S
FLAGSTAFF      CLOUDY    54  52  93 NW3       30.27F
PAYSON         CLOUDY    70  55  60 CALM      30.18R
PAGE           LGT RAIN  76  48  37 S10G17    30.10R
$$

AZZ009>014-017-220400-
NORTHEAST ARIZONA

CITY           SKY/WX    TMP DP  RH WIND       PRES   REMARKS
WINSLOW        NOT AVBL
SAINT JOHNS    CLOUDY    61  57  87 NE8       30.21R
WINDOW ROCK    LGT RAIN  59  53  80 W6        30.28R
SHOW LOW       CLOUDY    59  50  72 SW3       30.26R
$$

AZZ023-220400-
GREATER PHOENIX AREA

CITY           SKY/WX    TMP DP  RH WIND       PRES   REMARKS
PHOENIX        CLOUDY    86  60  41 SW8       29.91R
GLENDALE       LGT RAIN  84  64  51 S24G32    29.96R
LUKE AFB       NOT AVBL
DEER VALLEY    MOCLDY    85  58  39 S6        29.93R
SCOTTSDALE     MOCLDY    85  59  41 CALM      29.95R
MESA-GATEWAY   MOCLDY    86  54  32 CALM      29.95R
CHANDLER       MOCLDY    86  57  37 E5        29.92R
$$

AZZ027-028-220400-
SOUTHWEST MARICOPA COUNTY AND PINAL COUNTY

CITY           SKY/WX    TMP DP  RH WIND       PRES   REMARKS
CASA GRANDE    MOCLDY    84  57  39 CALM      29.95R
$$

AZZ503-504-507>509-220400-
SOUTHEAST ARIZONA

CITY           SKY/WX    TMP DP  RH WIND       PRES   REMARKS
TUCSON         LGT RAIN  79  63  57 SW3       30.03R
RYAN FIELD       N/A     77  70  78 E3        30.02R
NOGALES        CLOUDY    73  63  70 SE3       30.09R
SIERRA VISTA   CLOUDY    70  61  73 SW7       30.16R
SAFFORD        CLOUDY    79  52  38 W8        30.01R
$$

AZZ020-021-025-026-031-220400-
SOUTHWEST ARIZONA

CITY           SKY/WX    TMP DP  RH WIND       PRES   REMARKS
YUMA           CLOUDY    74  65  73 E13       29.88F
$$

CAZ031-033-041-043-047-048-061-220400-
SOUTHERN CALIFORNIA

CITY           SKY/WX    TMP DP  RH WIND       PRES   REMARKS
DOWNTOWN L.A.  CLEAR     71  61  70 W6        29.91R
L.A. AIRPORT   PTCLDY    69  62  78 W12       29.92R
SAN DIEGO      MOCLDY    72  63  73 W8        29.94S
BURBANK        CLEAR     74  60  61 S6        29.91R
ONTARIO        PTCLDY    79  60  52 W13       29.92R
RIVERSIDE      PTCLDY    78  61  55 W3        29.93R
PALM SPRINGS   MOCLDY    85  57  38 NE8       29.93R
EL CENTRO NAS  MOCLDY    73  65  75 S8        29.90F
IMPERIAL       CLOUDY    74  65  73 SW8       29.89F
BLYTHE         CLOUDY    71  66  84 N7        29.89F
$$

NVZ020-UTZ003-220400-
SOUTHERN NEVADA-UTAH

CITY           SKY/WX    TMP DP  RH WIND       PRES   REMARKS
LAS VEGAS      NOT AVBL
SALT LAKE CITY MOCLDY    73  47  39 S6        30.00S
$$

NMZ009-TXZ055-220400-
NEW MEXICO-WEST TEXAS

CITY           SKY/WX    TMP DP  RH WIND       PRES   REMARKS
ALBUQUERQUE    MOCLDY    78  39  24 E6        30.10R
EL PASO        LGT RAIN  84  53  34 S16       30.04R
$$


........................KEY........................
SKY/WX - SKY CONDITION/WEATHER
TMP    - TEMPERATURE IN FAHRENHEIT
DP     - DEW POINT IN FAHRENHEIT
RH     - RELATIVE HUMIDITY IN PERCENT
WIND   - DIRECTION AND SPEED IN MILES PER HOUR (MPH)
VRB    - VARIABLE WIND DIRECTION
PRES   - MEAN SEA LEVEL PRESSURE IN INCHES OF MERCURY
         F - FALLING PRESSURE   R - RISING PRESSURE
         S - STEADY PRESSURE
VSB    - VISIBILITY IN MILES
HX     - HEAT INDEX IN FAHRENHEIT
WCI    - WIND CHILL INDEX IN FAHRENHEIT
TC     - TEMPERATURE IN CELSIUS WHICH IS ALSO KNOWN AS
         TEMPERATURE IN CENTIGRADE
AFB    - AIR FORCE BASE
         LUKE AFB IS LUKE AIR FORCE BASE
         DAVIS-MONTHAN IS DAVIS-MONTHAN AIR FORCE BASE
NAS    - NAVAL AIR STATION
         EL CENTRO NAS IS EL CENTRO NAVAL AIR STATION
N/A    - NOT AVAILABLE



USA.gov is the U.S. government's official web portal to all federal, state and local government web resources and services.